Regional Weather Roundup
Issued by NWS

Home | Current Version | Previous Version | Text Only | Print | Product List | Glossary Off
Versions: 1 2 3 4 5 6 7 8 9 10 11 12 13 14 15 16 17 18 19 20 21 22 23 24 25 26 27 28 29 30 31 32 33 34 35 36 37 38 39 40 41 42 43 44 45 46 47 48 49 50

000
ASUS43 KMPX 270010
RWRMN
WEATHER ROUNDUP FOR MINNESOTA
NATIONAL WEATHER SERVICE TWIN CITIES/CHANHASSEN MN
700 PM CDT MON SEP 26 2016


NOTE: "FAIR" INDICATES FEW OR NO CLOUDS BELOW 12,000 FEET WITH NO
SIGNIFICANT WEATHER AND/OR OBSTRUCTIONS TO VISIBILITY. N/A MEANS
CURRENT SKY AND/OR WEATHER CONDITIONS ARE NOT AVAILABLE.

MNZ060>063-068>070-270100-
   Twin Cities Metro

CITY           SKY/WX    TMP DP  RH WIND       PRES   REMARKS
TWIN CITIES    PTCLDY    61  33  35 NW15      29.88R
6HR MIN TEMP:  61; 6HR MAX TEMP:  66;

ST PAUL        CLEAR     62  33  33 NW15G22   29.87S
CRYSTAL        CLEAR     62  32  32 NW12      29.87S
BLAINE         PTCLDY    63  36  36 NW13G22   29.87R
LAKEVILLE      CLEAR     61  34  36 W10G20    29.89S
EDEN PRAIRIE   CLEAR     64  33  31 NW13      29.88S
6HR MIN TEMP:  63; 6HR MAX TEMP:  68;

LAKEVILLE      CLEAR     61  34  36 W10G20    29.89S
SOUTH ST PAUL  CLEAR     63  32  31 W12G18    29.87S
LAKE ELMO      FAIR      59  36  41 W9        29.88R
$$
MNZ001>005-007-008-013>017-022>024-027-028-270100-
   Northwest Minnesota

CITY           SKY/WX    TMP DP  RH WIND       PRES   REMARKS
BEMIDJI        CLOUDY    53  42  68 NW16G22   29.86S
HALLOCK        CLEAR     55  46  71 N10       29.92R
ROSEAU         CLOUDY    54  46  76 W17G24    29.85S
WARROAD        CLOUDY    54  46  76 NW17G29   29.83R
THIEF RVR FALL CLEAR     53  43  68 NW13      29.92R
CROOKSTON      CLEAR     57  46  67 N9        29.92S
FOSSTON        PTCLDY    54  43  66 NW14G25   29.91R
DETROIT LAKES  CLEAR     57  39  51 NW13      29.92F
MOORHEAD       CLEAR     63  28  27 NW20G25   29.94S
PARK RAPIDS    CLOUDY    57  39  51 NW15      29.88R
MAHNOMEN       FAIR      56  41  55 NW17G26   29.91S
$$
MNZ006-009>011-018-025>026-270100-
   North Central Minnesota

CITY           SKY/WX    TMP DP  RH WIND       PRES   REMARKS
BAUDETTE       CLOUDY    53  45  74 NW26G35   29.78R
FLAG ISLAND    CLOUDY    52  46  82 NW26G36   29.77S
INTL FALLS     RAIN      50  48  93 W16G23    29.71R
6HR MIN TEMP:  50; 6HR MAX TEMP:  51; 6HR PCP:  0.26;

WASKISH        CLOUDY    54  46  76 W20G32    29.81S
BIG FORK       LGT RAIN  54  45  71 W12G21    29.77S
LONGVILLE      CLOUDY    55  43  62 NW13      29.84F
GRAND RAPIDS   CLOUDY    54  42  64 NW20G26   29.80F
ORR            LGT RAIN  48  45  87 W15G25    29.69R
COOK           LGT RAIN  48  46  93 W14G30    29.72S
WALKER         CLOUDY    55  41  60 NW12G22   29.85S
$$
MNZ012-019>021-037-270100-
   Northeast Minnesota

CITY           SKY/WX    TMP DP  RH WIND       PRES   REMARKS
DULUTH         LGT RAIN  52  45  77 W18G30    29.73F
6HR MIN TEMP:  50; 6HR MAX TEMP:  54; 6HR PCP:  0.01;

ELY            RAIN      48  46  93 W15G32    29.66R
HIBBING        LGT RAIN  49  45  86 W13G24    29.74S
EVELETH        DRIZZLE   50  47  89 W15       29.73F
DULUTH HARBOR  DRIZZLE   55  48  76 W14G23    29.75S
TWO HARBORS    DRIZZLE   54  48  82 W14G24    29.67F
SILVER BAY     DRIZZLE   52  48  87 W7        29.64S
GRAND MARAIS     N/A     51  47  86 W8        29.55F
G MARAIS ARPRT CLOUDY    46  41  81 W13G30    29.54F
$$
MNZ029>031-032-039>041-046>048-054>057-064-270100-
   West Central Minnesota

CITY           SKY/WX    TMP DP  RH WIND       PRES   REMARKS
FERGUS FALLS   CLEAR     61  32  33 NW15G24   29.95S
MORRIS         CLEAR     63  30  29 NW15G24   29.94S
ALEXANDRIA     CLEAR     59  33  37 NW16G25   29.93S
ELBOW LAKE     FAIR      60  31  33 W16       29.94S
GLENWOOD       CLEAR     61  30  31 W21       29.93S
BENSON         CLEAR     63  23  22 N15       29.95R
ORTONVILLE     CLEAR     64  30  27 NW16G23   29.97S
MADISON          N/A     66  32  28 NW14G23   29.98S
WILLMAR        FAIR      63  30  29 W14G21    29.95S
$$
MNZ033>034-036-042>043-049>051-058-059-270100-
   Central Minnesota

CITY           SKY/WX    TMP DP  RH WIND       PRES   REMARKS
ST CLOUD       CLEAR     59  37  44 NW13      29.88S
6HR MIN TEMP:  59; 6HR MAX TEMP:  64;

SAUK CENTRE    FAIR      59  35  41 W13G18    29.91S
PAYNESVILLE    CLEAR     60  31  32 W8        29.91S
AITKIN         CLOUDY    57  39  51 W3        29.83S
PINE RIVER     CLOUDY    57  43  58 NW10G18   29.89S
BRAINERD       MOCLDY    58  40  51 NW14      29.86S
STAPLES        CLEAR     55  36  47 NW13G22   29.88S
LONG PRAIRIE   FAIR      57  36  44 W9        29.90S
LITTLE FALLS   CLEAR     57  36  44 W10G17    29.88S
LITCHFIELD     CLEAR     64  34  32 NW13G22   29.92S
BUFFALO        CLEAR     62  32  32 W10G20    29.89F
MAPLE LAKE     CLEAR     61  37  40 W8        29.90S
HUTCHINSON     CLEAR     64  34  33 W13       29.92F
$$
MNZ037-044-045-052-053-270100-
   East Central Minnesota

CITY           SKY/WX    TMP DP  RH WIND       PRES   REMARKS
PRINCETON      CLEAR     61  37  41 W13G18    29.87S
MORA           CLEAR     55  37  50 NW12      29.86S
CAMBRIDGE      CLEAR     61  43  51 W8        29.84S
MOOSE LAKE     CLOUDY    55  41  58 NW9G20    29.79S
HINCKLEY       CLOUDY    59  41  51 W14G21    29.82S
CLOQUET        CLOUDY    54  41  62 W16G29    29.76F
MCGREGOR       CLOUDY    55  43  62 W10G18    29.82F
$$
MNZ071>073-080-081-089-090-097-098-270100-
   Southwest Minnesota

CITY           SKY/WX    TMP DP  RH WIND       PRES   REMARKS
MONTEVIDEO     CLEAR     64  34  32 NW10G18   29.98S
GRANITE FALLS  CLEAR     65  35  32 W12G18    29.98F
CANBY          CLEAR     63  34  34 NW13      30.00S
MARSHALL       CLEAR     61  35  37 NW12      29.99R
REDWOOD FALLS  CLEAR     62  31  31 NW12      29.95S
OLIVIA         CLEAR     63  32  31 NW13G20   29.94S
PIPESTONE      CLEAR     64  23  20 NW9G16    30.02F
WINDOM         CLEAR     63  30  29 W9        29.99S
WORTHINGTON    CLEAR     60  33  36 W10       30.02S
JACKSON        CLEAR     63  27  25 W8        30.00S
TRACY          CLEAR     64  34  32 NW9G17    29.99F
SLAYTON        CLEAR     63  30  29 W10G17    30.02S
$$
MNZ065>067-074>077-082>085-091>093-270100-
   South Central Minnesota

CITY           SKY/WX    TMP DP  RH WIND       PRES   REMARKS
MANKATO        CLEAR     63  32  31 W14G24    29.94S
NEW ULM        CLEAR     63  30  29 NW14      29.95S
ST JAMES       CLEAR     64  30  27 W15       29.97S
FAIRMONT       CLEAR     63  33  32 NW14      29.98S
GLENCOE        CLEAR     64  35  34 W10G16    29.91S
FARIBAULT      CLEAR     61  34  36 W10G18    29.91F
OWATONNA       CLEAR     63  28  27 W15G23    29.92F
WASECA         CLEAR     63  32  31 W13       29.94F
ALBERT LEA     CLEAR     63  32  31 W9        29.95S
$$
MNZ078>079-086>088-094>096-270100-
   Southeast Minnesota

CITY           SKY/WX    TMP DP  RH WIND       PRES   REMARKS
ROCHESTER      CLEAR     61  33  35 W13G22    29.91F
6HR MIN TEMP:  61; 6HR MAX TEMP:  68;

RED WING       PTCLDY    63  30  29 NW7       29.86S
DODGE CENTER   PTCLDY    61  30  31 W14G22    29.91F
WINONA         CLEAR     61  32  33 W8        29.88S
AUSTIN         CLEAR     63  30  29 W9        29.93F
PRESTON        CLEAR     58  32  36 W14       29.92F
$$
ABBREVIATIONS USED IN REMARKS
   TC - TEMPERATURES IN CELSIUS
  WCI - WIND CHILL INDEX
   HX - HEAT INDEX
  VSB - VISIBILITY
$$



USA.gov is the U.S. government's official web portal to all federal, state and local government web resources and services.